Date String (YYYY-MM-DD hh:mm:ss) UTC,Instrument flags,Ambient pressure (hPa),Sample flow (lpm),Bypass flow (lpm),Sample temperature (°C),Ambient temperature (°C),ASC tube jacket temperature (°C),LED temperature (°C),Box temperature (°C),Sample RH (%),Span deviation,Mass concentration (μg/m³),Mass concentration (μg/m³),Mass concentration (μg/m³)
DateTimeUTC,F1_M11,P_M11,Q1_M11,Q2_M11,T1_M11,T2_M11,T3_M11,T4_M11,T5_M11,U1_M11,ZSPAN_M11,X0_M11,X2_M11,X1_M11
2022-04-14 15:00:00,,0820.3,5.00,0.00,22.0,21.3,00.0,31.2,23.6,06.6,0000.0,0008.06,0003.68,0002.50
2022-04-14 15:01:00,,0820.3,5.00,0.00,22.0,21.1,00.0,31.1,23.6,06.6,0000.0,0008.06,0003.70,0002.51
2022-04-14 15:02:00,,0820.4,5.00,0.00,22.0,21.0,00.0,31.1,23.6,06.5,0000.0,0008.08,0003.71,0002.52
2022-04-14 15:03:00,,0820.3,5.00,0.00,21.9,20.9,00.0,31.1,23.5,06.6,0000.0,0008.38,0003.75,0002.53
2022-04-14 15:04:00,,0820.4,4.99,0.00,21.9,20.8,00.0,31.1,23.4,06.6,0000.0,0008.81,0003.83,0002.55
2022-04-14 15:05:00,,0820.3,5.01,0.00,21.9,20.9,00.0,31.0,23.5,06.7,0000.0,0008.96,0003.89,0002.56
2022-04-14 15:06:00,,0820.5,5.01,0.00,22.0,22.1,00.0,31.1,23.7,06.7,0000.0,0008.82,0003.91,0002.57
2022-04-14 15:07:00,,0820.5,5.01,0.00,22.2,23.3,00.0,31.1,24.1,06.7,0000.0,0008.83,0003.93,0002.56
2022-04-14 15:08:00,,0820.4,4.99,0.00,22.3,23.3,00.0,31.2,24.2,06.7,0000.0,0008.69,0003.90,0002.56
2022-04-14 15:09:00,,0820.4,5.00,0.00,22.3,22.8,00.0,31.2,24.1,06.7,0000.0,0008.72,0003.90,0002.54
2022-04-14 15:10:00,,0820.4,4.99,0.00,22.2,22.5,00.0,31.2,24.0,06.7,0000.0,0008.73,0003.87,0002.52
2022-04-14 15:11:00,,0820.5,5.01,0.00,22.2,22.2,00.0,31.2,23.9,06.7,0000.0,0008.99,0003.88,0002.52
2022-04-14 15:12:00,,0820.4,5.00,0.00,22.2,21.9,00.0,31.2,23.9,06.7,0000.0,0009.34,0003.89,0002.51
2022-04-14 15:13:00,,0820.5,4.99,0.00,22.2,21.7,00.0,31.2,23.8,06.7,0000.0,0009.42,0003.88,0002.51
2022-04-14 15:14:00,,0820.5,5.01,0.00,22.2,21.5,00.0,31.1,23.8,06.8,0000.0,0009.58,0003.87,0002.52
2022-04-14 15:15:00,,0820.5,5.00,0.00,22.1,21.4,00.0,31.1,23.7,06.7,0000.0,0009.18,0003.85,0002.51
2022-04-14 15:16:00,,0820.5,5.00,0.00,22.1,21.2,00.0,31.1,23.7,06.7,0000.0,0009.13,0003.81,0002.52
2022-04-14 15:17:00,,0820.5,5.00,0.00,22.0,21.1,00.0,31.1,23.6,06.8,0000.0,0009.18,0003.79,0002.51
2022-04-14 15:18:00,,0820.6,5.00,0.00,22.0,21.0,00.0,31.1,23.6,07.0,0000.0,0009.55,0003.77,0002.52
2022-04-14 15:19:00,,0820.5,5.00,0.00,21.9,21.0,00.0,31.1,23.5,07.0,0000.0,0009.60,0003.79,0002.52
2022-04-14 15:20:00,,0820.6,5.00,0.00,21.9,21.1,00.0,31.1,23.5,07.0,0000.0,0009.84,0003.82,0002.52
2022-04-14 15:21:00,,0820.6,5.02,0.00,22.0,22.2,00.0,31.1,23.8,07.0,0000.0,0009.90,0003.77,0002.52
2022-04-14 15:22:00,,0820.6,4.98,0.00,22.2,23.3,00.0,31.2,24.2,07.0,0000.0,0009.67,0003.72,0002.50
2022-04-14 15:23:00,,0820.4,5.01,0.00,22.3,23.3,00.0,31.2,24.3,07.0,0000.0,0009.91,0003.69,0002.49
2022-04-14 15:24:00,,0820.5,5.00,0.00,22.4,22.9,00.0,31.2,24.2,07.1,0000.0,0009.80,0003.68,0002.48
2022-04-14 15:25:00,,0820.5,4.99,0.00,22.4,22.6,00.0,31.2,24.1,07.1,0000.0,0009.67,0003.65,0002.45
2022-04-14 15:26:00,,0820.6,5.01,0.00,22.3,22.3,00.0,31.2,24.0,07.1,0000.0,0009.69,0003.64,0002.42
2022-04-14 15:27:00,,0820.6,5.00,0.00,22.3,22.0,00.0,31.2,24.0,07.2,0000.0,0009.67,0003.62,0002.41
2022-04-14 15:28:00,,0820.6,5.00,0.00,22.3,21.8,00.0,31.2,23.9,07.3,0000.0,0009.66,0003.64,0002.41
2022-04-14 15:29:00,,0820.5,5.00,0.00,22.2,21.6,00.0,31.2,23.9,07.3,0000.0,0008.98,0003.61,0002.41
2022-04-14 15:30:00,,0820.5,5.00,0.00,22.2,21.4,00.0,31.2,23.8,07.3,0000.0,0008.90,0003.58,0002.39
2022-04-14 15:31:00,,0820.4,5.00,0.00,22.1,21.3,00.0,31.2,23.7,07.4,0000.0,0009.03,0003.53,0002.39
2022-04-14 15:32:00,,0820.5,4.99,0.00,22.1,21.2,00.0,31.2,23.7,07.4,0000.0,0009.05,0003.55,0002.38
2022-04-14 15:33:00,,0820.6,5.00,0.00,22.1,21.1,00.0,31.1,23.7,07.6,0000.0,0009.07,0003.57,0002.38
2022-04-14 15:34:00,,0820.5,5.00,0.00,22.0,21.1,00.0,31.1,23.7,07.6,0000.0,0008.70,0003.57,0002.37
2022-04-14 15:35:00,,0820.5,5.00,0.00,22.0,21.1,00.0,31.1,23.6,07.8,0000.0,0008.98,0003.62,0002.36
2022-04-14 15:36:00,,0820.4,5.00,0.00,22.0,21.0,00.0,31.1,23.6,07.7,0000.0,0009.51,0003.63,0002.36
2022-04-14 15:37:00,,0820.4,5.01,0.00,22.0,20.9,00.0,31.1,23.6,07.8,0000.0,0009.49,0003.64,0002.35
2022-04-14 15:38:00,,0820.4,5.00,0.00,22.0,21.0,00.0,31.1,23.6,07.6,0000.0,0009.59,0003.63,0002.33
2022-04-14 15:39:00,,0820.4,4.99,0.00,22.1,22.1,00.0,31.1,23.9,07.8,0000.0,0009.57,0003.60,0002.31
2022-04-14 15:40:00,,0820.5,5.01,0.00,22.2,23.3,00.0,31.2,24.2,07.8,0000.0,0009.65,0003.58,0002.28
2022-04-14 15:41:00,,0820.5,5.01,0.00,22.4,23.4,00.0,31.2,24.3,07.9,0000.0,0009.76,0003.57,0002.27
2022-04-14 15:42:00,,0820.5,4.99,0.00,22.4,23.1,00.0,31.2,24.3,07.9,0000.0,0009.50,0003.56,0002.27
2022-04-14 15:43:00,,0820.5,4.99,0.00,22.3,22.6,00.0,31.2,24.1,07.6,0000.0,0009.30,0003.60,0002.26
2022-04-14 15:44:00,,0820.5,5.00,0.00,22.3,22.3,00.0,31.2,24.0,07.8,0000.0,0009.35,0003.59,0002.25
2022-04-14 15:45:00,,0820.5,4.99,0.00,22.3,22.1,00.0,31.2,24.0,08.1,0000.0,0009.09,0003.56,0002.25
2022-04-14 15:46:00,,0820.5,5.01,0.00,22.2,21.9,00.0,31.2,23.9,08.1,0000.0,0008.83,0003.50,0002.24
2022-04-14 15:47:00,,0820.5,5.00,0.00,22.2,21.7,00.0,31.2,23.9,08.2,0000.0,0008.55,0003.48,0002.24
2022-04-14 15:48:00,,0820.4,5.00,0.00,22.2,21.6,00.0,31.2,23.9,08.2,0000.0,0009.08,0003.54,0002.25
2022-04-14 15:49:00,,0820.4,5.01,0.00,22.2,21.4,00.0,31.2,23.8,08.2,0000.0,0009.24,0003.57,0002.26
2022-04-14 15:50:00,,0820.4,5.00,0.00,22.1,21.3,00.0,31.2,23.8,08.2,0000.0,0009.56,0003.54,0002.24
2022-04-14 15:51:00,,0820.4,5.00,0.00,22.1,21.2,00.0,31.2,23.7,08.3,0000.0,0009.55,0003.57,0002.25
2022-04-14 15:52:00,,0820.3,5.00,0.00,22.1,21.1,00.0,31.1,23.7,08.3,0000.0,0009.40,0003.58,0002.26
2022-04-14 15:53:00,,0820.3,4.99,0.00,22.1,21.1,00.0,31.1,23.7,08.3,0000.0,0009.30,0003.61,0002.25
2022-04-14 15:54:00,,0820.3,5.00,0.00,22.0,21.0,00.0,31.1,23.7,08.3,0000.0,0009.90,0003.60,0002.25
2022-04-14 15:55:00,,0820.3,5.01,0.00,22.0,20.9,00.0,31.1,23.6,08.4,0000.0,0009.85,0003.59,0002.24
2022-04-14 15:56:00,,0820.3,5.00,0.00,22.0,20.9,00.0,31.1,23.5,08.5,0000.0,0009.76,0003.63,0002.24
2022-04-14 15:57:00,,0820.3,5.00,0.00,22.0,20.8,00.0,31.1,23.5,08.4,0000.0,0009.73,0003.62,0002.24
2022-04-14 15:58:00,,0820.3,4.98,0.00,21.9,21.2,00.0,31.0,23.5,08.5,0000.0,0009.48,0003.63,0002.22
2022-04-14 15:59:00,,0820.3,4.99,0.00,22.1,22.5,00.0,31.1,23.9,08.5,0000.0,0008.84,0003.61,0002.21
